Regional Weather Roundup
Issued by NWS

Home | Current Version | Previous Version | Graphics & Text | Print | Product List | Glossary On
Versions: 1 2 3 4 5 6 7 8 9 10 11 12 13 14 15 16 17 18 19 20 21 22 23 24 25 26 27
000
ASUS43 KDMX 220207
RWRIA

WEATHER ROUNDUP FOR IOWA
NATIONAL WEATHER SERVICE DES MOINES IA
900 PM CDT TUE OCT 21 2014

NOTE: "FAIR" INDICATES FEW OR NO CLOUDS BELOW 12,000 FEET WITH NO
SIGNIFICANT WEATHER AND/OR OBSTRUCTIONS TO VISIBILITY.

* - THESE STATIONS ARE NOT NWS STATIONS...THUS NOT UNDER NWS
QUALITY CONTROL.  THEY ALSO DO NOT REPORT WEATHER SUCH
AS PRECIPITATION OR FOG.

IAZ001>003-012>014-020>022-031>034-043>046-220300-
   NORTHWEST IOWA

CITY           SKY/WX    TMP DP  RH WIND       PRES   REMARKS
CARROLL *      MOCLDY    52  45  76 SE7       30.11R
CHEROKEE *     CLEAR     55  43  62 SE12      30.07R
DENISON *      CLOUDY    55  45  67 SE8G15    30.06S
LE MARS *      CLEAR     57  43  58 SE8       30.04R
ORANGE CITY *  CLEAR     57  43  58 SE7       30.05R
SHELDON *      CLEAR     57  43  58 SE15      30.05R
SIOUX CITY     CLEAR     59  42  53 SE8       30.03R
SPENCER        CLEAR     55  42  61 SE15      30.09R
STORM LAKE *   CLEAR     54  43  66 SE13      30.10R
$$

IAZ055>058-069>071-079>083-090>094-220300-
   SOUTHWEST IOWA

CITY           SKY/WX    TMP DP  RH WIND       PRES   REMARKS
ATLANTIC *     PTCLDY    57  45  62 SE10      30.09R
AUDUBON *      CLEAR     52  43  71 SE5       30.11S
CLARINDA *     CLEAR     57  43  58 E6        30.10S
COUNCIL BLFS * CLEAR     57  41  54 SE9       30.05S
CRESTON *      CLEAR     52  45  76 E9        30.12S
HARLAN  *      CLEAR     55  45  67 SE8G16    30.12R
LAMONI         CLEAR     55  45  68 E7        30.13R
RED OAK *      CLEAR     57  43  58 E8        30.09R
SHENANDOAH *     N/A     55  43  62 SE7       30.08S
$$

IAZ047>049-059>061-072>074-084-220300-
   CENTRAL IOWA

CITY           SKY/WX    TMP DP  RH WIND       PRES   REMARKS
AMES             N/A     50  40  68 SE5       30.15R
ANKENY *       CLEAR     52  43  71 SE8       30.15R
CHARITON *     CLEAR     52  45  76 E10       30.14S
DES MOINES     CLEAR     57  41  55 SE12      30.15R
GRINNELL*      CLEAR     49  39  69 E8        30.18S
KNOXVILLE *    CLEAR     50  41  71 E7        30.15R
MARSHALLTOWN   CLEAR     44  39  82 E8        30.17R
PELLA *        CLEAR     50  41  71 SE6       30.18R
PERRY *          N/A     50  43  78 E7        30.13S
$$

IAZ004>006-015-016-023>025-035-036-220300-
   NORTH CENTRAL IOWA

CITY           SKY/WX    TMP DP  RH WIND       PRES   REMARKS
ALGONA *       CLEAR     52  41  66 SE10G17   30.14R
CLARION *      CLEAR     50  41  71 SE10      30.15R
ESTHERVILLE    CLEAR     51  40  65 SE13      30.11R
FORT DODGE *   CLEAR     48  37  66 SE10      30.14R
MASON CITY     CLEAR     47  39  74 SE9       30.18R
FOREST CITY *    N/A     48  41  76 SE9       30.16R
IOWA FALLS *     N/A     45  39  79 SE6       30.17S
$$

IAZ007>011-017>019-026>030-037>042-050>054-066-220300-
   NORTHEAST IOWA

CITY           SKY/WX    TMP DP  RH WIND       PRES   REMARKS
CEDAR RAPIDS   CLEAR     44  37  76 E8        30.20R
CHARLES CITY * CLEAR     48  37  66 SE8       30.20R
CLINTON *      CLEAR     39  36  87 E8        30.27R WCI  34
DECORAH *      CLEAR     43  37  81 SE7       30.21R
DUBUQUE        CLEAR     42  37  82 E8        30.24R
MONTICELLO *   CLEAR     46  39  76 E8        30.22S
OELWEIN *      CLEAR     46  37  71 E14       30.22R
WATERLOO       CLEAR     45  37  73 E8        30.19R
$$

IAZ064-065-067-068-078-220300-
   EAST CENTRAL IOWA

CITY           SKY/WX    TMP DP  RH WIND       PRES   REMARKS
DAVENPORT      CLEAR     44  36  73 E9        30.24R
IOWA CITY      CLEAR     50  38  63 E9        30.22R
MT. PLEASANT * CLEAR     43  37  81 E6        30.20R
MUSCATINE *    CLEAR     52  37  58 E7        30.22R
QUAD CITIES    CLEAR     44  37  76 E8        30.23R
$$

IAZ062-063-075>077-085>089-095>099-220300-
   SOUTHEAST IOWA

CITY           SKY/WX    TMP DP  RH WIND       PRES   REMARKS
BURLINGTON     CLEAR     49  39  68 E5        30.20R
FAIRFIELD *    CLEAR     46  37  71 E8        30.19R
FORT MADISON * CLEAR     52  43  71 E5        30.21R
KEOKUK *       CLEAR     50  41  71 E9        30.19R
OSKALOOSA *      N/A     47  39  74 E8        30.19R
CENTERVILLE *    N/A     48  41  76 E6        30.17S
WASHINGTON *   CLEAR     46  41  81 E8        30.20R
$$

ABBREVIATIONS USED IN REMARKS
   TC - TEMPERATURES IN CELSIUS
  WCI - WIND CHILL INDEX
   HX - HEAT INDEX
  VSB - VISIBILITY
$$




USA.gov is the U.S. government's official web portal to all federal, state and local government web resources and services.